Location: Newark
(15.3000°N, 61.3833°W)
Time: 03:20:31
(UTC+00:00)

ISS - Visible Passes

Search period start: 17 October 2019 00:00
Search period end: 27 October 2019 00:00
Orbit: 411 x 421 km, 51.6° (Epoch: 16 October)

Date Brightness Start Highest point End Pass type
(mag) Time Alt. Az. Time Alt. Az. Time Alt. Az.
18 Oct -0.1 09:24:47 10° SE 09:25:21 10° SE 09:25:56 10° ESE visible
20 Oct -2.6 09:21:32 10° SSW 09:24:45 46° SE 09:27:59 10° NE visible
21 Oct -1.1 08:33:44 10° S 08:36:17 20° SE 08:38:49 10° ENE visible
22 Oct -3.0 09:21:12 10° WSW 09:24:15 32° NW 09:27:19 10° NNE visible
23 Oct -3.6 08:36:09 63° NNE 08:36:09 63° NNE 08:39:03 10° NE visible
